Location: Munkebjergskolens Observatorium
(55.3864°N, 10.3987°E)
Time: 01:01:21
(UTC+02:00)

QB50P2 - Visible Passes

Search period start: 18 April 2024 00:00
Search period end: 28 April 2024 00:00
Orbit: 568 x 582 km, 98.0° (Epoch: 17 April)

Date Brightness Start Highest point End Pass type
(mag) Time Alt. Az. Time Alt. Az. Time Alt. Az.
18 Apr ? 02:32:08 10° ENE 02:33:28 11° E 02:34:47 10° ESE visible
18 Apr ? 04:05:16 10° NNE 04:09:25 75° ESE 04:12:23 18° S visible
19 Apr ? 02:35:17 10° ENE 02:36:57 12° E 02:38:37 10° ESE visible
19 Apr ? 04:08:43 10° NNE 04:12:51 81° ESE 04:15:58 17° SSW visible
20 Apr ? 02:38:28 10° ENE 02:40:25 13° E 02:42:20 10° ESE visible
20 Apr ? 04:12:07 10° NNE 04:16:16 86° ESE 04:19:32 16° SSW visible
21 Apr ? 02:41:40 10° NE 02:43:50 14° E 02:45:59 10° ESE visible
21 Apr ? 04:15:30 10° NNE 04:19:39 89° WNW 04:23:04 15° SSW visible
22 Apr ? 02:44:52 10° NE 02:47:13 15° E 02:49:34 10° ESE visible
22 Apr ? 04:18:51 10° NNE 04:23:00 84° WNW 04:26:33 14° SSW visible
23 Apr ? 02:48:03 10° NE 02:50:34 16° E 02:53:06 10° SE visible
23 Apr ? 04:22:09 10° NNE 04:26:19 79° WNW 04:30:00 13° SSW visible
24 Apr ? 02:51:13 10° NE 02:53:54 17° E 02:56:35 10° SE visible
24 Apr ? 04:25:27 10° NNE 04:29:35 74° WNW 04:33:25 12° SSW visible
25 Apr ? 02:54:22 10° NE 02:57:11 18° E 03:00:00 10° SE visible
25 Apr ? 04:28:43 10° NNE 04:32:50 69° WNW 04:36:48 11° SSW visible
26 Apr ? 02:57:30 10° NE 03:00:26 19° E 03:03:22 10° SE visible
26 Apr ? 04:31:56 10° N 04:36:03 65° WNW 04:40:07 10° SSW visible
27 Apr ? 03:00:36 10° NE 03:03:40 20° E 03:06:42 10° SE visible
27 Apr ? 04:35:08 10° N 04:39:13 61° WNW 04:43:17 10° SSW visible
